Time,TemperatureF,DewpointF,PressureIn,WindDirection,WindDirectionDegrees,WindSpeedMPH,WindSpeedGustMPH,Humidity,HourlyPrecipIn,Conditions,Clouds,dailyrainin,SolarRadiationWatts/m^2,SoftwareType,DateUTC
2014-01-01 00:02:00,40.0,19.0,-100.00,South,181,7.0,13.0,43,0.00,,,0.00,0.000000,,2014-01-01 06:02:00,
2014-01-01 00:12:00,40.0,19.0,-100.00,South,181,7.0,13.0,43,0.00,,,0.00,0.000000,,2014-01-01 06:12:00,
2014-01-01 00:42:00,39.0,19.0,-100.00,SSW,194,6.0,12.0,45,0.00,,,0.00,0.000000,,2014-01-01 06:42:00,
2014-01-01 00:53:00,39.0,19.0,-100.00,SSW,194,6.0,12.0,45,0.00,,,0.00,0.000000,,2014-01-01 06:53:00,
2014-01-01 01:02:00,39.0,19.0,-100.00,SSW,194,6.0,12.0,45,0.00,,,0.00,0.000000,,2014-01-01 07:02:00,
2014-01-01 01:12:00,39.0,19.0,-100.00,SSW,194,6.0,12.0,45,0.00,,,0.00,0.000000,,2014-01-01 07:12:00,
2014-01-01 01:42:00,38.0,20.0,-100.00,SSW,199,6.0,11.0,48,0.00,,,0.00,0.000000,,2014-01-01 07:42:00,
2014-01-01 01:52:00,38.0,20.0,-100.00,SSW,199,6.0,11.0,48,0.00,,,0.00,0.000000,,2014-01-01 07:52:00,
2014-01-01 02:02:00,38.0,20.0,-100.00,SSW,199,6.0,11.0,48,0.00,,,0.00,0.000000,,2014-01-01 08:02:00,
2014-01-01 02:12:00,38.0,20.0,-100.00,SSW,199,6.0,11.0,48,0.00,,,0.00,0.000000,,2014-01-01 08:12:00,
2014-01-01 02:42:00,37.0,21.0,-100.00,SSW,201,6.0,11.0,51,0.00,,,0.00,0.000000,,2014-01-01 08:42:00,
2014-01-01 02:52:00,37.0,21.0,-100.00,SSW,201,6.0,11.0,51,0.00,,,0.00,0.000000,,2014-01-01 08:52:00,
2014-01-01 03:03:00,37.0,21.0,-100.00,SSW,201,6.0,11.0,51,0.00,,,0.00,0.000000,,2014-01-01 09:03:00,
2014-01-01 03:11:00,37.0,21.0,-100.00,SSW,201,6.0,11.0,51,0.00,,,0.00,0.000000,,2014-01-01 09:11:00,
2014-01-01 03:43:00,36.0,20.0,-100.00,South,188,5.0,9.0,52,0.00,,,0.00,0.000000,,2014-01-01 09:43:00,
2014-01-01 03:53:00,36.0,20.0,-100.00,South,188,5.0,9.0,52,0.00,,,0.00,0.000000,,2014-01-01 09:53:00,
2014-01-01 04:02:00,36.0,20.0,-100.00,South,188,5.0,9.0,52,0.00,,,0.00,0.000000,,2014-01-01 10:02:00,
2014-01-01 04:12:00,36.0,20.0,-100.00,South,188,5.0,9.0,52,0.00,,,0.00,0.000000,,2014-01-01 10:12:00,
2014-01-01 04:43:00,34.0,20.0,-100.00,South,188,5.0,9.0,55,0.00,,,0.00,0.000000,,2014-01-01 10:43:00,
2014-01-01 04:53:00,34.0,20.0,-100.00,South,188,5.0,9.0,55,0.00,,,0.00,0.000000,,2014-01-01 10:53:00,
2014-01-01 05:02:00,34.0,20.0,-100.00,South,188,5.0,9.0,55,0.00,,,0.00,0.000000,,2014-01-01 11:02:00,
2014-01-01 05:12:00,34.0,20.0,-100.00,South,188,5.0,9.0,55,0.00,,,0.00,0.000000,,2014-01-01 11:12:00,
2014-01-01 05:42:00,33.0,20.0,-100.00,South,173,4.0,8.0,58,0.00,,,0.00,0.000000,,2014-01-01 11:42:00,
2014-01-01 05:53:00,33.0,20.0,-100.00,South,173,4.0,8.0,58,0.00,,,0.00,0.000000,,2014-01-01 11:53:00,
2014-01-01 06:02:00,33.0,20.0,-100.00,South,173,4.0,8.0,58,0.00,,,0.00,0.000000,,2014-01-01 12:02:00,
2014-01-01 06:12:00,33.0,20.0,-100.00,South,173,4.0,8.0,58,0.00,,,0.00,0.000000,,2014-01-01 12:12:00,
2014-01-01 06:42:00,32.0,20.0,-100.00,South,173,4.0,6.0,60,0.00,,,0.00,0.000000,,2014-01-01 12:42:00,
2014-01-01 06:52:00,32.0,20.0,-100.00,South,173,4.0,6.0,60,0.00,,,0.00,0.000000,,2014-01-01 12:52:00,
2014-01-01 07:02:00,32.0,20.0,-100.00,South,173,4.0,6.0,60,0.00,,,0.00,0.000000,,2014-01-01 13:02:00,
2014-01-01 07:12:00,32.0,20.0,-100.00,South,173,4.0,6.0,60,0.00,,,0.00,0.000000,,2014-01-01 13:12:00,
2014-01-01 07:42:00,32.0,21.0,-100.00,South,171,4.0,7.0,63,0.00,,,-99.99,0.000000,,2014-01-01 13:42:00,
2014-01-01 07:52:00,32.0,21.0,-100.00,South,171,4.0,7.0,63,0.00,,,-99.99,0.000000,,2014-01-01 13:52:00,
2014-01-01 08:01:00,32.0,21.0,-100.00,South,171,4.0,7.0,63,0.00,,,-99.99,0.000000,,2014-01-01 14:01:00,
2014-01-01 08:12:00,32.0,21.0,-100.00,South,171,4.0,7.0,63,0.00,,,-99.99,0.000000,,2014-01-01 14:12:00,
2014-01-01 08:42:00,34.0,22.0,-100.00,South,170,4.0,7.0,62,0.00,,,0.00,55.000000,,2014-01-01 14:42:00,
2014-01-01 08:53:00,34.0,22.0,-100.00,South,170,4.0,7.0,62,0.00,,,0.00,55.000000,,2014-01-01 14:53:00,
2014-01-01 09:02:00,34.0,22.0,-100.00,South,170,4.0,7.0,62,0.00,,,0.00,55.000000,,2014-01-01 15:02:00,
2014-01-01 09:11:00,34.0,22.0,-100.00,South,170,4.0,7.0,62,0.00,,,0.00,55.000000,,2014-01-01 15:11:00,
2014-01-01 09:13:00,36.0,23.0,-100.00,SE,146,4.0,7.0,59,0.00,,,0.00,149.000000,,2014-01-01 15:13:00,
2014-01-01 09:43:00,36.0,23.0,-100.00,SE,146,4.0,7.0,59,0.00,,,0.00,149.000000,,2014-01-01 15:43:00,
2014-01-01 09:53:00,36.0,23.0,-100.00,SE,146,4.0,7.0,59,0.00,,,0.00,149.000000,,2014-01-01 15:53:00,
2014-01-01 10:03:00,36.0,23.0,-100.00,SE,146,4.0,7.0,59,0.00,,,0.00,149.000000,,2014-01-01 16:03:00,
2014-01-01 10:43:00,39.0,24.0,-100.00,SSE,149,4.0,6.0,54,0.00,,,0.00,266.000000,,2014-01-01 16:43:00,
2014-01-01 10:53:00,39.0,24.0,-100.00,SSE,149,4.0,6.0,54,0.00,,,0.00,266.000000,,2014-01-01 16:53:00,
2014-01-01 11:02:00,39.0,24.0,-100.00,SSE,149,4.0,6.0,54,0.00,,,0.00,266.000000,,2014-01-01 17:02:00,
2014-01-01 11:12:00,39.0,24.0,-100.00,SSE,149,4.0,6.0,54,0.00,,,0.00,266.000000,,2014-01-01 17:12:00,
2014-01-01 11:43:00,42.0,25.0,-100.00,SSW,196,3.0,7.0,50,0.00,,,0.00,213.000000,,2014-01-01 17:43:00,
2014-01-01 11:52:00,42.0,25.0,-100.00,SSW,196,3.0,7.0,50,0.00,,,0.00,213.000000,,2014-01-01 17:52:00,
2014-01-01 12:02:00,42.0,25.0,-100.00,SSW,196,3.0,7.0,50,0.00,,,0.00,213.000000,,2014-01-01 18:02:00,
2014-01-01 12:12:00,42.0,25.0,-100.00,SSW,196,3.0,7.0,50,0.00,,,0.00,213.000000,,2014-01-01 18:12:00,
2014-01-01 12:42:00,44.0,24.0,-100.00,East,95,2.0,6.0,45,0.00,,,0.00,253.000000,,2014-01-01 18:42:00,
2014-01-01 12:53:00,44.0,24.0,-100.00,East,95,2.0,6.0,45,0.00,,,0.00,253.000000,,2014-01-01 18:53:00,
2014-01-01 13:01:00,44.0,24.0,-100.00,East,95,2.0,6.0,45,0.00,,,0.00,253.000000,,2014-01-01 19:01:00,
2014-01-01 13:12:00,44.0,24.0,-100.00,East,95,2.0,6.0,45,0.00,,,0.00,253.000000,,2014-01-01 19:12:00,
2014-01-01 13:42:00,41.0,25.0,-100.00,NE,52,6.0,9.0,52,0.00,,,0.00,147.000000,,2014-01-01 19:42:00,
2014-01-01 13:53:00,41.0,25.0,-100.00,NE,52,6.0,9.0,52,0.00,,,0.00,147.000000,,2014-01-01 19:53:00,
2014-01-01 14:03:00,41.0,25.0,-100.00,NE,52,6.0,9.0,52,0.00,,,0.00,147.000000,,2014-01-01 20:03:00,
2014-01-01 14:12:00,41.0,25.0,-100.00,NE,52,6.0,9.0,52,0.00,,,0.00,147.000000,,2014-01-01 20:12:00,
2014-01-01 14:42:00,42.0,26.0,-100.00,NE,45,6.0,10.0,53,0.00,,,0.00,172.000000,,2014-01-01 20:42:00,
2014-01-01 14:53:00,42.0,26.0,-100.00,NE,45,6.0,10.0,53,0.00,,,0.00,172.000000,,2014-01-01 20:53:00,
2014-01-01 15:02:00,42.0,26.0,-100.00,NE,45,6.0,10.0,53,0.00,,,0.00,172.000000,,2014-01-01 21:02:00,
2014-01-01 15:11:00,42.0,26.0,-100.00,NE,45,6.0,10.0,53,0.00,,,0.00,172.000000,,2014-01-01 21:11:00,
2014-01-01 15:13:00,42.0,27.0,-100.00,ENE,71,4.0,12.0,54,0.00,,,0.00,163.000000,,2014-01-01 21:13:00,
2014-01-01 15:43:00,42.0,27.0,-100.00,ENE,71,4.0,12.0,54,0.00,,,0.00,163.000000,,2014-01-01 21:43:00,
2014-01-01 15:53:00,42.0,27.0,-100.00,ENE,71,4.0,12.0,54,0.00,,,0.00,163.000000,,2014-01-01 21:53:00,
2014-01-01 16:03:00,42.0,27.0,-100.00,ENE,71,4.0,12.0,54,0.00,,,0.00,163.000000,,2014-01-01 22:03:00,
2014-01-01 16:42:00,42.0,26.0,-100.00,NE,36,5.0,9.0,52,0.00,,,0.00,97.000000,,2014-01-01 22:42:00,
2014-01-01 16:53:00,42.0,26.0,-100.00,NE,36,5.0,9.0,52,0.00,,,0.00,97.000000,,2014-01-01 22:53:00,
2014-01-01 17:02:00,42.0,26.0,-100.00,NE,36,5.0,9.0,52,0.00,,,0.00,97.000000,,2014-01-01 23:02:00,
2014-01-01 17:12:00,42.0,26.0,-100.00,NE,36,5.0,9.0,52,0.00,,,0.00,97.000000,,2014-01-01 23:12:00,
2014-01-01 17:42:00,41.0,26.0,-100.00,North,10,5.0,8.0,54,0.00,,,0.00,17.000000,,2014-01-01 23:42:00,
2014-01-01 17:53:00,41.0,26.0,-100.00,North,10,5.0,8.0,54,0.00,,,0.00,17.000000,,2014-01-01 23:53:00,
2014-01-01 18:02:00,41.0,26.0,-100.00,North,10,5.0,8.0,54,0.00,,,0.00,17.000000,,2014-01-02 00:02:00,
2014-01-01 18:11:00,41.0,26.0,-100.00,North,10,5.0,8.0,54,0.00,,,0.00,17.000000,,2014-01-02 00:11:00,
2014-01-01 18:42:00,30.0,21.0,-100.00,North,357,11.0,19.0,69,0.00,,,0.00,0.000000,,2014-01-02 00:42:00,
2014-01-01 18:52:00,30.0,21.0,-100.00,North,357,11.0,19.0,69,0.00,,,0.00,0.000000,,2014-01-02 00:52:00,
2014-01-01 19:02:00,30.0,21.0,-100.00,North,357,11.0,19.0,69,0.00,,,0.00,0.000000,,2014-01-02 01:02:00,
2014-01-01 19:11:00,30.0,21.0,-100.00,North,357,11.0,19.0,69,0.00,,,0.00,0.000000,,2014-01-02 01:11:00,
2014-01-01 19:42:00,27.0,20.0,-100.00,NNE,23,8.0,20.0,73,0.00,,,0.00,0.000000,,2014-01-02 01:42:00,
2014-01-01 19:52:00,27.0,20.0,-100.00,NNE,23,8.0,20.0,73,0.00,,,0.00,0.000000,,2014-01-02 01:52:00,
2014-01-01 20:02:00,27.0,20.0,-100.00,NNE,23,8.0,20.0,73,0.00,,,0.00,0.000000,,2014-01-02 02:02:00,
2014-01-01 20:11:00,27.0,20.0,-100.00,NNE,23,8.0,20.0,73,0.00,,,0.00,0.000000,,2014-01-02 02:11:00,
2014-01-01 20:52:00,25.0,18.0,-100.00,North,9,9.0,17.0,75,0.00,,,0.00,0.000000,,2014-01-02 02:52:00,
2014-01-01 21:02:00,25.0,18.0,-100.00,North,9,9.0,17.0,75,0.00,,,0.00,0.000000,,2014-01-02 03:02:00,
2014-01-01 21:12:00,25.0,18.0,-100.00,North,9,9.0,17.0,75,0.00,,,0.00,0.000000,,2014-01-02 03:12:00,
2014-01-01 21:13:00,22.0,16.0,-100.00,North,7,10.0,19.0,78,0.00,,,0.00,0.000000,,2014-01-02 03:13:00,
2014-01-01 21:43:00,22.0,16.0,-100.00,North,7,10.0,19.0,78,0.00,,,0.00,0.000000,,2014-01-02 03:43:00,
2014-01-01 21:53:00,22.0,16.0,-100.00,North,7,10.0,19.0,78,0.00,,,0.00,0.000000,,2014-01-02 03:53:00,
2014-01-01 22:03:00,22.0,16.0,-100.00,North,7,10.0,19.0,78,0.00,,,0.00,0.000000,,2014-01-02 04:03:00,
2014-01-01 22:43:00,20.0,16.0,-100.00,NNW,347,8.0,17.0,85,0.00,,,0.00,0.000000,,2014-01-02 04:43:00,
2014-01-01 22:53:00,20.0,16.0,-100.00,NNW,347,8.0,17.0,85,0.00,,,0.00,0.000000,,2014-01-02 04:53:00,
2014-01-01 23:02:00,20.0,16.0,-100.00,NNW,347,8.0,17.0,85,0.00,,,0.00,0.000000,,2014-01-02 05:02:00,
2014-01-01 23:12:00,20.0,16.0,-100.00,NNW,347,8.0,17.0,85,0.00,,,0.00,0.000000,,2014-01-02 05:12:00,
2014-01-01 23:42:00,18.0,15.0,-100.00,North,349,7.0,16.0,86,0.01,,,0.01,0.000000,,2014-01-02 05:42:00,
2014-01-01 23:53:00,18.0,15.0,-100.00,North,349,7.0,16.0,86,0.01,,,0.01,0.000000,,2014-01-02 05:53:00,